This is the latest recevied weather packets stored in our database for station/object KK7RJD. If no packets are shown the sender has not sent any weather packets the latest 10 day(s).
| Time | Temp. | Humidity | Pressure | Rain* | Wind** | Luminosity | Snow |
|---|---|---|---|---|---|---|---|
| 1777687413 | 17.22° C | 20% | 1017.8 hPa | 0 mm | - | 13 W/m² | - |
| 1777687109 | 17.22° C | 21% | 1017.7 hPa | 0 mm | - | 16 W/m² | - |
| 1777686807 | 17.78° C | 20% | 1017.7 hPa | 0 mm | - | 19 W/m² | - |
| 1777686504 | 17.78° C | 20% | 1017.9 hPa | 0 mm | - | 22 W/m² | - |
| 1777686201 | 18.33° C | 19% | 1017.7 hPa | 0 mm | - | 24 W/m² | - |
| 1777685897 | 18.33° C | 19% | 1017.5 hPa | 0 mm | - | 27 W/m² | - |
| 1777685593 | 18.33° C | 19% | 1017.6 hPa | 0 mm | - | 30 W/m² | - |
| 1777685289 | 18.89° C | 19% | 1017.6 hPa | 0 mm | - | 33 W/m² | - |
| 1777684987 | 18.89° C | 18% | 1017.7 hPa | 0 mm | - | 35 W/m² | - |
| 1777684684 | 18.89° C | 19% | 1017.7 hPa | 0 mm | - | 37 W/m² | - |
| 1777684380 | 18.89° C | 19% | 1017.7 hPa | 0 mm | - | 41 W/m² | - |
| 1777684078 | 18.89° C | 19% | 1017.8 hPa | 0 mm | - | 53 W/m² | - |
| 1777683774 | 19.44° C | 19% | 1017.6 hPa | 0 mm | - | 65 W/m² | - |
| 1777683471 | 19.44° C | 19% | 1017.7 hPa | 0 mm | - | 65 W/m² | - |
| 1777683169 | 19.44° C | 19% | 1017.6 hPa | 0 mm | - | 64 W/m² | - |
| 1777682865 | 19.44° C | 20% | 1017.6 hPa | 0 mm | - | 97 W/m² | - |
| 1777682562 | 19.44° C | 19% | 1017.7 hPa | 0 mm | - | 115 W/m² | - |
| 1777682260 | 20° C | 18% | 1017.7 hPa | 0 mm | - | 126 W/m² | - |
| 1777681957 | 20° C | 19% | 1017.7 hPa | 0 mm | - | 154 W/m² | - |
| 1777681652 | 20.56° C | 19% | 1017.8 hPa | 0 mm | - | 169 W/m² | - |
| 1777681350 | 20.56° C | 18% | 1017.9 hPa | 0 mm | - | 182 W/m² | - |
| 1777681047 | 20° C | 19% | 1017.8 hPa | 0 mm | - | 203 W/m² | - |
| 1777680745 | 20° C | 18% | 1017.8 hPa | 0 mm | - | 210 W/m² | - |
| 1777680442 | 20° C | 20% | 1017.9 hPa | 0 mm | - | 225 W/m² | - |
| 1777680140 | 20° C | 19% | 1017.9 hPa | 0 mm | - | 240 W/m² | - |
* Rain latest hour (hover to see other rain measurements)
** Current wind speed in m/s (hover to see current wind gust speed)